Champaign, IL

9:06 AM CST on November 20, 2019 (GMT -0600)
Univ Of Illinois-Willard

Weather History for KCMI - April, 2019

Change the Weather History Date:

Tuesday, April 30, 2019

  Actual Average Record
Temperature  
Mean Temperature 59 °F 57 °F  
Max Temperature 66 °F 69 °F 90 °F (2007)
Min Temperature 51 °F 45 °F 33 °F (2018)
Degree Days  
Heating Degree Days 6 8  
Month to date heating degree days 366 408  
Since 1 July heating degree days 5763 5664  
Cooling Degree Days 0 1  
Month to date cooling degree days 3 10  
Year to date cooling degree days 3 11  
Growing Degree Days 8 (Base 50)    
Moisture  
Dew Point 53 °F    
Average Humidity 89    
Maximum Humidity 100    
Minimum Humidity 78    
Precipitation  
Precipitation 0.49 in 0.17 in 1.06 in (1998)
Month to date precipitation 4.40 3.79  
Year to date precipitation 12.14 10.61  
Sea Level Pressure  
Sea Level Pressure 30.06 in    
Wind  
Wind Speed 15 mph (ENE)    
Max Wind Speed 24 mph    
Max Gust Speed 39 mph    
Visibility 6 miles    
Events Rain , Thunderstorm    
T = Trace of Precipitation, MM = Missing Value Source: NWS Daily Summary

Daily Weather History Graph

Daily Weather History Graph

Search for Another Location

Airport or City:

Astronomy

Apr. 30, 2019 Rise Set
Actual Time 5:54 AM CDT 7:46 PM CDT
Civil Twilight 5:25 AM CDT 8:16 PM CDT
Nautical Twilight 4:49 AM CDT 8:51 PM CDT
Astronomical Twilight 4:11 AM CDT 9:30 PM CDT
Moon 4:11 AM CDT (4/30) 3:36 PM CDT (4/30)
Length of Visible Light 14h 50m
Length of Day
13h 52m
Waning Crescent, 17% of the Moon is Illuminated
Apr 30
Waning Crescent
May 4
New
May 11
First Quarter
May 18
Full
May 26
Last Quarter

Hourly Weather History & Observations

Time (CDT) Temp. Dew Point Humidity Pressure Visibility Wind Dir Wind Speed Gust Speed Precip Events Conditions
12:53 AM 52.0 °F 51.1 °F 97% 30.14 in 6.0 mi NE 8.1 mph - N/A   Overcast
1:11 AM 52.0 °F 50.0 °F 93% 30.12 in 6.0 mi NE 10.4 mph - N/A   Scattered Clouds
1:53 AM 52.0 °F 50.0 °F 93% 30.15 in 6.0 mi NE 6.9 mph - N/A   Overcast
2:53 AM 51.1 °F 50.0 °F 96% 30.14 in 6.0 mi ENE 6.9 mph - N/A   Overcast
3:53 AM 52.0 °F 50.0 °F 93% 30.15 in 7.0 mi NNE 6.9 mph - N/A   Overcast
4:53 AM 52.0 °F 50.0 °F 93% 30.13 in 6.0 mi East 12.7 mph - N/A   Overcast
5:53 AM 52.0 °F 48.9 °F 89% 30.15 in 9.0 mi ENE 10.4 mph - N/A   Overcast
6:21 AM 52.0 °F 48.0 °F 86% 30.17 in 10.0 mi NNE 11.5 mph - N/A   Overcast
6:53 AM 51.1 °F 48.9 °F 92% 30.20 in 8.0 mi NNE 11.5 mph - N/A   Overcast
7:18 AM 51.1 °F 48.0 °F 89% 30.18 in 7.0 mi NE 13.8 mph - N/A   Overcast
7:25 AM 51.1 °F 48.9 °F 92% 30.18 in 7.0 mi ENE 16.1 mph - N/A   Overcast
7:53 AM 51.1 °F 48.9 °F 92% 30.17 in 5.0 mi ENE 13.8 mph - N/A   Overcast
8:53 AM 52.0 °F 48.9 °F 89% 30.18 in 4.0 mi ENE 16.1 mph - N/A   Overcast
9:33 AM 52.0 °F 48.9 °F 89% 30.18 in 5.0 mi ENE 16.1 mph - N/A   Overcast
9:53 AM 52.0 °F 48.9 °F 89% 30.18 in 5.0 mi ENE 17.3 mph 26.5 mph N/A   Overcast
10:53 AM 54.0 °F 50.0 °F 86% 30.15 in 7.0 mi East 18.4 mph - N/A   Overcast
11:53 AM 55.9 °F 51.1 °F 84% 30.12 in 8.0 mi East 21.9 mph - N/A   Overcast
12:53 PM 55.9 °F 52.0 °F 87% 30.10 in 8.0 mi East 20.7 mph 27.6 mph N/A   Overcast
1:53 PM 60.1 °F 54.0 °F 80% 30.06 in 8.0 mi East 21.9 mph - N/A   Scattered Clouds
2:00 PM 61.0 °F 54.0 °F 78% 30.04 in 8.0 mi East 19.6 mph - N/A Thunderstorm Scattered Clouds
2:23 PM 62.1 °F 55.9 °F 80% 30.03 in 7.0 mi East 21.9 mph 29.9 mph 0.00 in Rain , Thunderstorm Light Thunderstorms and Rain
2:38 PM 61.0 °F 55.9 °F 83% 30.03 in 8.0 mi East 19.6 mph - 0.00 in   Mostly Cloudy
2:53 PM 62.1 °F 55.9 °F 80% 30.03 in 8.0 mi ESE 16.1 mph - 0.00 in   Mostly Cloudy
3:53 PM 64.9 °F 59.0 °F 81% 30.01 in 10.0 mi East 8.1 mph - N/A   Scattered Clouds
4:22 PM 66.0 °F 60.1 °F 81% 30.02 in 10.0 mi NNW 15.0 mph 26.5 mph N/A   Mostly Cloudy
4:36 PM 59.0 °F 55.0 °F 87% 30.03 in 7.0 mi North 21.9 mph 29.9 mph N/A   Overcast
4:53 PM 57.9 °F 55.0 °F 90% 30.03 in 6.0 mi North 18.4 mph 26.5 mph N/A   Overcast
5:14 PM 55.0 °F 54.0 °F 96% 30.03 in 4.0 mi NE 15.0 mph 25.3 mph 0.03 in Rain Light Rain
5:35 PM 55.0 °F 54.0 °F 96% 30.02 in 5.0 mi NE 12.7 mph - 0.06 in   Mostly Cloudy
5:53 PM 54.0 °F 54.0 °F 100% 30.01 in 4.0 mi ENE 18.4 mph 27.6 mph 0.06 in Rain Light Rain
6:10 PM 54.0 °F 54.0 °F 100% 30.02 in 2.0 mi ENE 13.8 mph - 0.06 in Rain Rain
6:27 PM 54.0 °F 54.0 °F 100% 29.98 in 4.0 mi NE 16.1 mph 24.2 mph 0.07 in Rain Light Rain
6:53 PM 55.0 °F 54.0 °F 96% 29.97 in 4.0 mi ENE 17.3 mph - 0.08 in   Scattered Clouds
7:53 PM 54.0 °F 54.0 °F 100% 29.97 in 5.0 mi ENE 20.7 mph - 0.00 in Rain Light Rain
8:53 PM 54.0 °F 54.0 °F 100% 29.96 in 4.0 mi ENE 11.5 mph - 0.00 in   Partly Cloudy
9:53 PM 55.0 °F 54.0 °F 96% 29.94 in 4.0 mi ENE 13.8 mph - 0.01 in   Overcast
10:17 PM 55.0 °F 54.0 °F 96% 29.93 in 2.5 mi ENE 12.7 mph - 0.03 in Rain Rain
10:28 PM 55.0 °F 55.0 °F 100% 29.92 in 3.0 mi East 12.7 mph - 0.03 in Rain Light Rain
10:53 PM 55.0 °F 55.0 °F 100% 29.91 in 3.0 mi East 12.7 mph - 0.04 in Rain Light Rain
11:30 PM 55.9 °F 55.9 °F 100% 29.92 in 2.5 mi East 6.9 mph - 0.02 in Rain , Thunderstorm Thunderstorms and Rain
11:43 PM 55.9 °F 55.9 °F 100% 29.94 in 1.8 mi Variable 3.5 mph - 0.09 in Rain Rain
11:53 PM 55.9 °F 55.9 °F 100% 29.93 in 1.8 mi NW 3.5 mph - 0.12 in Rain Rain